Regional Weather Roundup
Issued by NWS Bismarck, ND

Home | Current Version | Previous Version | Text Only | Print | Product List | Glossary On
Versions: 1 2 3 4 5 6 7 8 9 10 11 12 13 14 15 16 17 18 19 20 21 22 23 24 25 26 27 28 29 30 31 32 33 34 35 36 37 38 39 40 41 42 43 44 45 46 47 48 49 50
000
ASUS43 KBIS 020610
RWRBIS

NWR BROADCAST TEXT
NATIONAL WEATHER SERVICE BISMARCK ND
100 AM CDT SUN AUG 02 2015

NOTE: "FAIR" INDICATES FEW OR NO CLOUDS BELOW 12,000 FEET WITH NO
SIGNIFICANT WEATHER AND/OR OBSTRUCTIONS TO VISIBILITY.


CITY           SKY/WX    TMP DP  RH WIND       PRES   REMARKS
WILLISTON      CLEAR     68  54  60 N10       29.87R
MINOT          CLEAR     65  55  70 NW12      29.78R
MINOT AFB      CLEAR     67  60  78 NW10      29.78R
BISMARCK       CLEAR     68  55  63 W6        29.73F
DICKINSON      CLEAR     65  46  50 NW10      29.84R
GARRISON         N/A     69  55  60 N22G32    29.76R
HETTINGER ARPT CLEAR     57  46  66 CALM      29.87R
JAMESTOWN      CLEAR     71  66  84 S8        29.68F
CROSBY         FAIR      55  55 100 NW9       29.88S
HARVEY         FAIR      61  59  94 S3        29.67S
HAZEN          FAIR      72  57  60 N17G24    29.77R
LINTON         FAIR      63  59  88 W3        29.77R
OAKES            N/A     68  68 100 SW3       29.69R
STANLEY        FAIR      64  61  88 N14       29.85R
$$

CITY           SKY/WX    TMP DP  RH WIND       PRES   REMARKS
GRAND FORKS    MOCLDY    68  62  81 CALM      29.65R
GRAND FORKS AF MOCLDY    66  62  86 NW5       29.67R
DEVILS LAKE    PTCLDY    72  57  60 NE18      29.70R
FARGO          CLEAR     73  65  75 CALM      29.65S
CAVALIER       LGT RAIN  64  61  88 NW14      29.72R
GRAFTON        FAIR      68  61  77 N12G18    29.71R
GWINNER          N/A     72  72 100 SW7       29.68S
LANGDON        MOCLDY    66  57  72 N13       29.76R
ROLLA          CLOUDY    61  59  94 NW7       29.78S
WALHALLA       LGT RAIN  63  63 100 MISG      29.72F
$$

CITY           SKY/WX    TMP DP  RH WIND       PRES   REMARKS
ABERDEEN       CLEAR     61  58  90 S6        29.71S
MOBRIDGE       CLEAR     66  57  72 N3        29.76R
BUFFALO          N/A     71  36  27 SW7       29.83S
RAPID CITY     CLEAR     70  61  73 SW7       29.92F
GLASGOW        CLEAR     67  51  56 E8        29.90R
SIDNEY         CLEAR    N/A N/A N/A N8        29.87R
WOLF POINT     CLEAR     68  52  56 NE13      29.89R
GLENDIVE         N/A    N/A N/A N/A MISG        N/A
MILES CITY     CLEAR     72  37  28 NE9       29.87R
BAKER          CLEAR     66  40  38 CALM      29.90R
$$

CITY           SKY/WX    TMP DP  RH WIND       PRES   REMARKS
BILLINGS       PTCLDY    80  32  17 S6        29.95R
GREAT FALLS    CLEAR     65  35  33 SW9       29.93R
REGINA         CLEAR     57  55  94 NW9       29.89S
ESTEVAN        CLEAR     55  54  94 NW7       29.86S
$$



USA.gov is the U.S. government's official web portal to all federal, state and local government web resources and services.